Wind_Speed
48 51 50 45 45 48 50 51 51 49 45 48 50 49 45 40 36 33 32 34 36 37 37 38 39 41 43 44 43 41 39 39 39 39 38 37 38 38 39 40 40 40 40 39
49 52 48 48 49 49 50 52 52 51 50 53 52 49 46 41 37 34 33 33 35 35 35 35 36 40 43 44 44 43 42 42 42 42 41 41 40 40 40 41 42 41 41 40
49 50 49 50 51 51 51 51 52 53 54 53 53 49 45 39 35 35 37 37 37 39 40 39 39 42 44 46 46 45 44 44 44 45 45 44 43 42 42 43 44 44 44 43
49 47 47 49 50 49 51 49 52 54 55 54 53 53 48 44 41 39 38 37 36 37 39 41 41 42 44 45 46 45 45 46 46 47 47 47 46 45 45 46 48 48 47 45
46 45 46 49 49 51 53 53 54 55 56 57 56 57 52 53 52 49 47 44 43 43 43 44 44 45 46 46 46 45 46 46 47 47 47 47 47 47 47 49 49 49 49 48
53 53 54 55 54 54 54 55 55 57 58 60 58 59 57 59 60 60 58 57 56 54 53 52 50 49 48 49 50 49 48 48 48 48 48 47 47 48 48 48 49 50 51 51
61 59 59 59 59 58 56 56 58 60 61 62 61 63 62 61 61 63 64 64 65 65 63 61 59 57 54 53 52 53 52 51 51 51 50 49 49 49 49 48 49 50 51 50
68 67 63 61 60 60 60 60 59 62 65 67 66 69 65 62 62 63 65 66 66 65 65 64 63 61 59 56 54 54 53 53 53 53 53 52 51 50 49 48 48 49 49 50
68 72 69 67 65 64 64 63 62 63 66 69 72 72 69 65 63 63 64 63 62 62 62 62 61 59 58 57 55 54 54 54 55 56 55 54 53 52 50 49 50 50 50 50
68 71 71 69 69 69 67 65 66 67 68 71 73 73 73 68 65 64 64 63 62 60 59 58 57 57 57 56 55 54 55 56 57 59 59 58 57 56 55 54 54 54 54 55
69 71 71 72 71 69 69 69 68 68 68 71 73 74 70 69 67 67 66 65 66 64 63 61 58 58 58 57 55 54 55 56 59 61 63 63 62 62 61 60 60 60 60 60
68 67 68 69 69 69 70 69 66 66 68 70 73 75 68 67 68 70 72 72 71 71 70 68 64 61 61 60 59 58 58 59 61 64 65 65 65 65 65 65 65 64 64 64
64 65 66 67 68 69 70 69 67 68 71 73 75 78 70 70 73 74 75 75 75 75 74 73 71 67 66 64 63 63 62 63 64 66 67 67 67 68 68 68 69 69 69 68
64 66 67 69 69 69 71 71 71 73 76 79 79 79 74 72 72 73 73 74 74 75 77 77 76 75 72 69 67 68 68 68 68 68 67 67 67 69 70 71 71 71 72 71
66 69 70 71 71 71 73 73 74 75 77 79 78 75 72 70 69 69 69 71 72 74 76 78 79 81 81 79 76 74 74 74 74 74 73 72 71 70 70 71 72 73 73 74
68 70 71 73 70 72 74 73 72 72 73 74 74 74 75 74 73 73 72 72 73 74 76 78 80 82 84 85 85 82 80 79 80 80 79 77 76 75 74 74 76 76 77 77
68 68 70 73 70 73 76 71 71 73 75 75 76 77 77 78 78 80 80 80 79 77 77 78 79 82 84 86 87 86 84 81 81 82 82 81 80 80 80 79 79 79 80 81
70 70 73 76 75 79 77 75 75 76 77 78 79 80 81 81 80 81 82 83 85 87 87 86 85 85 84 84 85 85 83 81 79 79 78 79 79 80 80 81 82 83 84 84
72 73 76 78 80 82 80 79 78 79 81 81 83 83 83 83 82 81 82 84 84 86 88 90 91 91 91 89 88 86 85 84 82 81 80 80 80 79 80 81 82 84 86 87
73 74 76 78 80 82 81 80 80 81 83 82 83 84 85 86 85 83 83 84 85 86 87 89 90 90 91 93 94 93 92 90 89 88 87 86 86 86 85 84 83 84 85 86
74 74 75 77 78 79 78 77 77 77 79 80 81 82 83 84 84 84 82 83 83 83 84 86 87 88 89 91 93 94 95 95 95 94 93 92 90 88 87 84 83 81 80 80
71 71 71 71 72 73 72 72 72 73 75 76 77 78 80 82 83 84 84 84 83 84 85 86 88 88 89 91 93 94 93 93 93 92 90 89 87 85 85 83 80 78 76 74
62 62 63 64 65 64 63 65 66 68 72 73 75 77 79 81 82 83 84 85 85 85 86 87 88 88 88 91 95 98 98 98 97 94 92 88 86 84 82 80 78 76 74 73
54 54 58 60 60 60 62 64 65 67 70 73 74 75 76 78 79 81 82 82 83 83 84 85 86 87 87 87 91 94 98 102 103 103 100 96 93 89 85 82 79 78 76 75
51 51 55 59 59 61 62 63 65 66 68 69 69 69 70 72 73 74 76 76 77 78 78 79 80 81 81 82 84 86 91 95 99 102 104 105 104 101 96 91 86 82 80 78
49 52 56 59 57 60 62 62 62 62 62 62 63 64 65 67 70 72 73 74 75 76 76 76 77 77 77 77 78 79 82 86 90 94 97 101 104 106 105 101 95 89 84 81
Wind_Direction
276 274 276 281 277 275 277 280 282 284 284 279 278 280 283 284 285 287 288 287 285 282 279 274 270 267 266 267 270 273 272 271 269 268 267 266 266 267 267 269 269 270 270 267
274 275 277 276 275 276 276 277 279 281 281 281 284 285 286 288 290 290 288 286 286 286 283 278 273 268 265 265 266 268 269 267 267 266 265 265 267 269 272 272 272 271 269 264
271 272 273 274 274 275 276 278 279 279 279 281 283 283 285 286 289 290 288 286 285 285 284 280 274 270 268 267 266 267 266 266 265 265 264 265 267 269 270 270 269 268 266 262
269 269 269 270 272 275 276 278 277 277 278 278 278 281 282 287 287 285 285 286 285 284 283 282 280 277 274 272 271 269 267 266 264 264 265 265 266 266 267 266 266 267 268 267
269 267 265 266 271 274 275 276 277 276 276 275 276 279 280 287 287 287 289 289 288 286 283 281 279 278 278 277 275 273 271 270 267 265 265 265 265 265 264 264 264 265 265 265
269 268 268 268 270 273 275 275 275 275 275 273 276 279 276 280 286 291 294 295 293 291 288 284 281 278 276 276 275 274 273 272 270 267 265 264 263 263 263 262 263 263 264 264
269 269 270 271 273 274 275 276 277 276 274 274 276 275 272 279 286 291 294 295 295 293 291 288 284 282 279 275 272 271 271 270 269 267 265 263 261 262 262 262 262 262 262 262
272 271 273 274 276 277 277 277 277 278 278 276 274 273 273 280 285 289 291 292 293 293 292 289 287 284 282 278 273 270 268 268 267 265 263 261 261 261 261 261 261 260 259 259
276 275 275 276 277 276 277 276 277 277 276 275 274 275 274 278 284 286 286 287 288 289 289 288 286 284 280 277 273 269 265 263 262 261 260 260 260 260 259 258 258 257 257 258
277 277 275 276 275 275 276 277 277 276 276 276 275 275 277 280 280 279 279 280 280 281 280 281 280 278 275 272 270 266 262 259 256 255 255 257 258 258 257 256 255 255 256 257
279 279 278 276 276 277 276 275 275 276 276 277 278 276 278 278 278 278 277 276 274 272 271 272 272 270 268 266 264 261 258 254 252 252 254 256 257 257 257 256 255 255 257 259
279 279 278 277 277 276 276 276 275 274 274 274 274 275 279 277 275 274 273 272 271 270 269 267 267 265 263 262 260 258 255 251 250 250 252 253 255 257 258 257 256 257 258 260
275 274 275 275 274 274 273 273 271 271 271 272 273 277 277 274 272 272 272 271 270 269 269 267 264 262 260 259 258 257 255 253 251 251 252 253 254 255 256 257 258 259 259 261
269 268 268 270 272 272 271 271 270 270 271 273 274 278 279 276 274 272 271 270 269 268 267 266 264 260 257 256 256 255 255 255 255 255 255 255 256 257 257 258 259 260 261 263
268 267 267 268 269 269 269 269 270 271 273 275 277 278 278 276 274 272 269 268 266 265 264 264 263 262 259 257 256 256 256 256 257 258 258 258 258 258 257 258 260 260 261 264
269 269 270 269 270 270 270 271 273 273 273 274 275 276 277 277 275 272 270 268 266 265 265 264 263 263 263 261 260 260 260 259 259 260 260 259 258 257 257 258 259 260 261 263
270 271 272 272 272 271 271 273 273 272 272 273 275 276 276 276 276 274 272 269 267 265 265 265 265 264 264 265 265 264 264 263 262 261 261 260 258 256 256 257 258 259 261 262
271 271 272 273 272 271 274 273 273 274 275 275 276 276 276 276 276 276 275 273 271 269 267 265 265 265 265 266 266 265 264 263 263 262 261 259 257 256 256 257 258 259 260 261
267 269 270 272 273 274 274 276 277 277 278 278 279 280 280 279 279 278 278 277 276 273 271 269 267 265 264 264 264 264 263 263 262 261 261 259 258 257 258 259 260 261 261 260
264 266 268 270 272 273 275 276 277 278 278 279 279 279 279 280 279 279 279 278 278 277 276 274 271 269 267 265 263 262 262 262 261 261 261 261 261 261 262 262 263 264 263 262
267 268 269 271 273 275 276 277 278 278 279 279 279 281 281 281 282 282 280 279 278 277 275 274 272 271 270 268 266 264 263 262 261 261 262 262 262 263 263 263 263 264 264 263
270 271 272 273 274 275 276 277 277 278 277 278 279 280 281 282 282 283 282 282 280 279 277 275 273 271 269 268 267 266 265 264 263 262 262 261 260 260 260 261 262 262 263 263
273 274 274 274 274 276 278 278 278 278 278 279 280 281 282 283 283 283 283 283 282 281 280 278 277 274 272 269 267 265 264 263 261 260 259 257 257 257 259 260 260 261 263 263
274 275 276 276 278 279 278 278 279 279 281 283 284 285 285 285 285 285 285 284 283 282 282 281 279 278 275 273 271 269 266 263 262 260 259 257 257 257 257 259 260 261 262 263
277 278 279 279 280 280 278 280 281 282 283 284 285 285 286 287 287 288 288 288 288 287 286 285 284 282 279 276 274 272 270 267 265 262 260 258 258 257 257 258 259 259 260 261
282 282 281 281 282 283 283 284 284 285 285 286 286 288 289 291 292 292 293 293 292 292 291 289 287 285 282 279 276 274 272 270 268 265 262 260 259 258 257 257 257 257 257 256
Height
5798 5796 5794 5797 5794 5789 5787 5784 5782 5785 5788 5782 5776 5774 5778 5784 5785 5786 5785 5783 5780 5778 5778 5777 5774 5771 5768 5767 5767 5767 5768 5768 5767 5767 5767 5767 5767 5767 5768 5769 5769 5769 5769 5769
5788 5785 5788 5785 5782 5781 5778 5774 5773 5774 5775 5769 5764 5763 5768 5773 5776 5777 5776 5774 5772 5770 5769 5768 5766 5761 5757 5756 5756 5757 5758 5757 5757 5758 5758 5758 5758 5759 5759 5759 5759 5759 5759 5759
5776 5776 5776 5774 5771 5770 5768 5767 5765 5762 5761 5760 5755 5750 5756 5764 5767 5767 5765 5764 5763 5761 5758 5758 5756 5752 5749 5747 5746 5747 5747 5747 5747 5747 5747 5748 5748 5749 5749 5748 5748 5747 5747 5748
5763 5766 5765 5762 5760 5758 5756 5757 5754 5752 5749 5746 5746 5739 5743 5751 5755 5755 5755 5754 5753 5751 5748 5745 5744 5743 5741 5739 5738 5738 5737 5737 5736 5735 5736 5737 5737 5738 5738 5736 5736 5736 5737 5738
5752 5752 5751 5750 5751 5747 5745 5743 5742 5740 5738 5735 5734 5733 5731 5732 5733 5737 5741 5742 5740 5739 5737 5735 5733 5732 5731 5730 5728 5728 5727 5726 5726 5725 5724 5725 5726 5726 5725 5724 5725 5725 5725 5726
5740 5739 5738 5738 5738 5735 5733 5731 5728 5726 5725 5724 5726 5724 5722 5722 5721 5722 5723 5724 5723 5722 5720 5720 5719 5719 5719 5719 5718 5717 5715 5715 5714 5713 5713 5712 5712 5712 5712 5712 5712 5712 5712 5713
5724 5724 5724 5724 5722 5722 5720 5718 5713 5711 5710 5713 5713 5710 5713 5715 5715 5713 5711 5708 5704 5701 5700 5700 5701 5702 5703 5704 5704 5703 5703 5702 5701 5700 5700 5699 5698 5698 5698 5698 5698 5698 5699 5700
5705 5708 5710 5709 5709 5707 5704 5702 5699 5695 5693 5695 5696 5695 5705 5707 5706 5703 5699 5693 5688 5684 5682 5680 5681 5683 5684 5685 5686 5687 5687 5687 5687 5686 5685 5685 5684 5684 5684 5684 5684 5684 5685 5685
5687 5690 5693 5692 5691 5691 5688 5686 5684 5677 5672 5672 5677 5681 5692 5697 5693 5689 5683 5677 5673 5669 5666 5664 5664 5665 5665 5666 5666 5668 5669 5670 5670 5670 5670 5669 5669 5669 5669 5669 5669 5670 5670 5670
5668 5669 5677 5674 5674 5673 5671 5669 5665 5658 5651 5649 5655 5664 5675 5682 5677 5671 5666 5661 5657 5654 5651 5650 5650 5649 5649 5648 5648 5649 5649 5650 5650 5651 5651 5652 5652 5652 5652 5653 5654 5654 5654 5654
5651 5648 5653 5655 5657 5657 5652 5650 5647 5640 5634 5629 5626 5639 5663 5660 5656 5648 5643 5639 5636 5635 5634 5634 5634 5634 5633 5633 5633 5633 5633 5633 5633 5633 5634 5636 5636 5636 5636 5637 5637 5637 5637 5638
5635 5630 5628 5634 5640 5636 5631 5630 5630 5624 5618 5613 5605 5610 5640 5638 5630 5621 5618 5616 5615 5615 5615 5615 5616 5616 5616 5616 5616 5616 5616 5615 5615 5616 5618 5619 5620 5620 5620 5620 5620 5620 5620 5620
5619 5615 5611 5612 5621 5619 5614 5613 5612 5606 5599 5594 5589 5590 5610 5611 5603 5600 5598 5597 5596 5595 5594 5595 5596 5596 5596 5596 5596 5596 5596 5596 5597 5598 5600 5602 5602 5602 5603 5603 5602 5602 5603 5603
5602 5598 5597 5596 5597 5598 5594 5594 5593 5589 5581 5575 5573 5572 5578 5581 5581 5580 5578 5577 5575 5574 5573 5573 5573 5573 5573 5573 5574 5575 5575 5575 5576 5578 5580 5582 5583 5584 5584 5583 5584 5585 5585 5586
5585 5580 5579 5577 5578 5576 5573 5573 5574 5571 5565 5557 5556 5555 5552 5554 5557 5556 5557 5556 5554 5552 5551 5550 5549 5549 5549 5549 5551 5552 5552 5552 5553 5555 5558 5560 5562 5562 5563 5564 5564 5564 5566 5567
5567 5562 5558 5557 5561 5554 5548 5553 5556 5553 5548 5542 5539 5535 5532 5533 5533 5532 5533 5533 5532 5530 5529 5527 5526 5526 5525 5525 5526 5527 5528 5528 5529 5531 5533 5536 5538 5539 5540 5541 5542 5543 5545 5546
5548 5545 5539 5534 5540 5531 5528 5539 5537 5532 5528 5526 5523 5520 5516 5513 5511 5508 5508 5508 5508 5506 5505 5503 5503 5502 5502 5501 5501 5502 5503 5503 5504 5505 5508 5510 5513 5515 5516 5517 5519 5521 5522 5523
5529 5527 5519 5513 5515 5508 5516 5516 5516 5511 5506 5505 5501 5496 5493 5491 5491 5487 5483 5482 5482 5481 5480 5479 5478 5477 5477 5476 5476 5477 5477 5477 5478 5480 5483 5485 5487 5489 5491 5493 5495 5497 5498 5499
5511 5507 5499 5493 5489 5486 5491 5494 5493 5487 5481 5481 5475 5470 5467 5464 5466 5466 5460 5457 5455 5454 5452 5451 5450 5450 5450 5450 5450 5450 5451 5451 5452 5454 5457 5459 5461 5463 5465 5468 5470 5472 5473 5475
5492 5487 5482 5475 5471 5467 5473 5473 5470 5465 5459 5458 5451 5446 5443 5439 5439 5444 5440 5433 5430 5427 5425 5422 5421 5421 5421 5421 5421 5422 5423 5423 5424 5426 5429 5431 5433 5435 5438 5441 5443 5445 5447 5449
5471 5466 5463 5459 5453 5450 5454 5453 5449 5445 5440 5433 5427 5423 5419 5415 5412 5413 5413 5409 5406 5403 5400 5396 5394 5394 5393 5391 5390 5391 5392 5392 5394 5397 5400 5402 5404 5406 5409 5413 5416 5419 5421 5423
5449 5446 5445 5441 5436 5437 5435 5432 5430 5423 5417 5412 5407 5403 5398 5393 5390 5387 5384 5383 5380 5376 5373 5369 5367 5368 5368 5365 5362 5362 5363 5362 5364 5366 5369 5372 5375 5377 5380 5384 5389 5392 5396 5399
5429 5430 5425 5421 5420 5421 5417 5412 5407 5400 5394 5393 5389 5386 5379 5373 5369 5365 5360 5358 5355 5350 5345 5341 5337 5337 5340 5337 5332 5331 5332 5330 5331 5334 5339 5342 5346 5349 5352 5357 5362 5367 5371 5375
5413 5412 5406 5402 5403 5402 5397 5392 5387 5382 5375 5372 5369 5363 5357 5350 5345 5340 5335 5332 5328 5323 5319 5313 5308 5306 5308 5307 5301 5298 5297 5297 5298 5302 5307 5311 5316 5321 5325 5330 5336 5341 5347 5351
5400 5397 5390 5385 5386 5379 5377 5374 5369 5364 5360 5355 5350 5344 5337 5329 5324 5318 5312 5308 5302 5297 5293 5286 5280 5276 5275 5274 5271 5268 5263 5261 5263 5267 5272 5278 5283 5288 5295 5302 5309 5316 5323 5327
5388 5381 5373 5368 5368 5359 5357 5358 5352 5346 5342 5337 5331 5326 5319 5311 5304 5297 5292 5286 5280 5273 5268 5260 5254 5249 5245 5242 5240 5238 5232 5228 5228 5232 5238 5243 5249 5256 5263 5271 5280 5288 5296 5302